[[{"header":{"parameterUnit":"m.s-1","parameterCategory":1,"la1":30.2991,"la2":30.254,"lo1":-89.0895,"lo2":-89.0444,"dy":0.0017,"dx":0.0017,"nx":28,"ny":28,"refTime":"2025-09-14T09:00:00:Z","depth":0,"parameterNumber":2,"parameterNumberName":"U-component_of_WINDS"},"data":[0,0,0,0,0,0,0,0,0,0,0,0,0,0,0,0,0,0,0,0,0,0,0,0,0,0,0,0,0,0,0,0,0,0,0,0,0,0,0,0,0,0,0,0,0,0,0,0,0,0,0,0,0,0,0,0,0,0,-3.1172,-3.1173,0,-3.125,-3.1251,-3.1252,-3.1216,-3.1214,-3.1213,-3.1211,-3.1289,-3.1293,-3.1296,0,0,0,0,0,0,0,0,0,0,0,0,0,-3.0992,-3.0995,-3.1172,-3.1173,-3.1174,-3.125,-3.1251,-3.1252,-3.1217,-3.1214,-3.1212,-3.121,-3.1288,-3.1292,-3.1297,0,0,0,0,0,0,0,0,0,0,0,0,0,-3.107,-3.0997,-3.1172,-3.1166,-3.1166,-3.1249,-3.1251,-3.1252,-3.1217,-3.1214,-3.1211,-3.1209,-3.1286,-3.1292,-3.1297,-3.1391,0,0,-3.1315,-3.1318,0,0,0,0,0,0,0,0,-3.1066,-3.1077,-3.1166,-3.1166,-3.1167,-3.122,-3.1216,-3.1299,-3.1218,-3.1198,-3.1211,-3.1207,-3.1268,-3.1275,-3.1296,-3.1395,-3.1398,-3.1316,-3.1319,-3.1322,-3.1323,0,0,0,0,0,0,0,-3.106,-3.1073,-3.1203,-3.1167,-3.1168,-3.1159,-3.1166,-3.1231,-3.1248,-3.1199,-3.1197,-3.1207,-3.1268,-3.1291,-3.1298,-3.1399,-3.1316,-3.1321,-3.1324,-3.1327,-3.1579,-3.1582,0,0,0,0,0,0,-3.1055,-3.1069,-3.12,-3.1205,-3.1108,-3.1164,-3.1173,-3.1206,-3.1247,-3.1251,-3.1209,-3.1205,-3.1282,-3.1291,-3.1301,-3.1413,-3.1322,-3.1327,-3.1331,-3.1576,-3.1579,-3.1583,0,0,0,0,0,0,-3.1051,-3.1067,-3.1197,-3.1136,-3.1152,-3.117,-3.1208,-3.1209,-3.1232,-3.1255,-3.1258,-3.1229,-3.128,-3.1292,-3.1369,-3.1415,-3.133,-3.1335,-3.1572,-3.1577,-3.1581,-3.1638,0,0,0,0,0,0,-3.1046,-3.1066,-3.1102,-3.1137,-3.1156,-3.1265,-3.1211,-3.1213,-3.1242,-3.1237,-3.1275,-3.1278,-3.1279,-3.1361,-3.1375,-3.1421,-3.134,-3.1568,-3.1574,-3.158,-3.1632,-3.1644,-3.1655,0,0,0,0,0,-3.104,-3.1115,-3.1104,-3.112,-3.1201,-3.1268,-3.1278,-3.1278,-3.1246,-3.1282,-3.1297,-3.1277,-3.1408,-3.1369,-3.1385,-3.1433,-3.1565,-3.1572,-3.1579,-3.1627,-3.1642,-3.1654,0,0,0,0,0,0,-3.1084,-3.1119,-3.1108,-3.1196,-3.1229,-3.1261,-3.1307,-3.1294,-3.1336,-3.133,-3.1327,-3.1336,-3.1416,-3.1432,-3.1388,-3.1526,-3.1481,-3.1492,-3.1512,-3.1527,-3.1538,-3.1531,-3.1345,0,0,0,0,0,-3.1104,-3.1155,-3.1183,-3.1259,-3.1276,-3.1289,-3.1318,-3.1315,-3.1349,-3.1363,-3.1383,-3.1416,-3.1465,-3.1497,-3.1543,-3.1635,-3.1642,-3.1676,-3.1688,-3.1697,-3.1706,-3.1755,-3.177,-3.1607,-3.1607,-3.1606,0,0,-3.1146,-3.1171,-3.1204,-3.1268,-3.1293,-3.1346,-3.1301,-3.1358,-3.1397,-3.1371,-3.1445,-3.1461,-3.1498,-3.1583,-3.1621,-3.1599,-3.1753,-3.1706,-3.1713,-3.1717,-3.1764,-3.178,-3.1793,-3.1612,-3.1611,-3.161,0,0,-3.1248,-3.1273,-3.1339,-3.1365,-3.1404,-3.1412,-3.1428,-3.1463,-3.1473,-3.1547,-3.1528,-3.1574,-3.1658,-3.1685,-3.171,-3.1824,-3.1806,-3.1839,-3.1897,-3.1945,-3.1958,-3.1969,-3.2009,-3.2024,-3.1848,-3.1848,-3.1848,0,-3.1295,-3.1374,-3.1374,-3.1433,-3.1462,-3.1441,-3.1507,-3.1533,-3.1585,-3.1605,-3.158,-3.1685,-3.1708,-3.1799,-3.1826,-3.1847,-3.1865,-3.1834,-3.1956,-3.1968,-3.1978,-3.2017,-3.2032,-3.1852,-3.1851,-3.1851,-3.1851,0,-3.1429,-3.1485,-3.1533,-3.1584,-3.1618,-3.168,-3.1689,-3.1724,-3.1718,-3.1729,-3.1805,-3.1832,-3.1884,-3.1905,-3.19,-3.1995,-3.198,-3.1956,-3.1911,-3.1998,-3.2033,-3.2048,-3.1857,-3.1856,-3.1854,-3.1854,0,0,-3.1561,-3.1612,-3.1629,-3.1652,-3.1694,-3.1736,-3.1798,-3.1848,-3.1878,-3.1915,-3.1965,-3.2037,-3.2015,-3.2043,-3.2042,-3.2084,-3.2172,-3.2055,-3.2055,-3.2075,-3.2278,-3.2295,-3.2312,-3.2161,-3.2164,-3.2166,-3.2274,0,-3.1667,-3.1774,-3.1776,-3.1875,-3.1926,-3.1907,-3.196,-3.1992,-3.2004,-3.2048,-3.2061,-3.2112,-3.2079,-3.2096,-3.2137,-3.2152,-3.2212,-3.2145,-3.2208,-3.221,-3.2198,-3.2331,-3.2349,-3.245,-3.2288,-3.2291,-3.2292,0,-3.1804,-3.1845,-3.1949,-3.1983,-3.2005,-3.2053,-3.2099,-3.2142,-3.2177,-3.2183,-3.2215,-3.2207,-3.2269,-3.2222,-3.2308,-3.2262,-3.2288,-3.2299,-3.2303,-3.2308,-3.2256,-3.2339,-3.2482,-3.2497,-3.2314,-3.2313,-3.2311,0,-3.1889,-3.197,-3.2043,-3.2063,-3.2105,-3.214,-3.2159,-3.2191,-3.2221,-3.2262,-3.2281,-3.2328,-3.2354,-3.2391,-3.2396,-3.2361,-3.2481,-3.2435,-3.2487,-3.2487,-3.2513,-3.2511,-3.2661,-3.2531,-3.2531,-3.2531,-3.253,0,-3.2006,-3.207,-3.2082,-3.2127,-3.2198,-3.2199,-3.227,-3.2286,-3.2315,-3.2362,-3.2349,-3.2393,-3.2397,-3.2443,-3.2447,-3.2517,-3.2529,-3.2535,-3.2535,-3.2536,-3.2535,-3.2552,-3.2545,-3.2535,-3.2534,-3.2533,-3.2532,0,-3.2112,-3.2123,-3.2201,-3.2234,-3.2244,-3.2295,-3.2324,-3.2366,-3.2377,-3.2437,-3.2451,-3.2468,-3.2521,-3.253,-3.2593,-3.2595,-3.2679,-3.2672,-3.2667,-3.2666,-3.2717,-3.2712,-3.2884,-3.2906,-3.2762,-3.2763,-3.2764,0,-3.2186,-3.2235,-3.2274,-3.2304,-3.2325,-3.2375,-3.2406,-3.2409,-3.2442,-3.2486,-3.2523,-3.2575,-3.2617,-3.2703,-3.272,-3.2768,-3.2762,-3.2819,-3.2769,-3.2768,-3.2762,-3.2759,-3.2764,-3.2828,-3.283,-3.2831,-3.2832,0,-3.2315,-3.2318,-3.2363,-3.2411,-3.2448,-3.2485,-3.2521,-3.2547,-3.2554,-3.2592,-3.2646,-3.2679,-3.2743,-3.2794,-3.2842,-3.2861,-3.2848,-3.2848,-3.2862,-3.2863,-3.2858,-3.2861,-3.2693,-3.2844,-3.2842,-3.2842,-3.2841,-3.284,-3.2407,-3.245,-3.2484,-3.2535,-3.2561,-3.2595,-3.2636,-3.2652,-3.2698,-3.275,-3.275,-3.2809,-3.2843,-3.2906,-3.2928,-3.2975,-3.2956,-3.2977,-3.2982,-3.2987,-3.2992,-3.2851,-3.2983,-3.2983,-3.2983,-3.2982,-3.2982,0,-3.2536,-3.2556,-3.2603,-3.2653,-3.2693,-3.2678,-3.2716,-3.275,-3.2803,-3.2836,-3.2877,-3.294,-3.299,-3.3012,-3.3061,-3.3094,-3.3089,-3.3107,-3.3104,-3.3109,-3.3006,-3.2988,-3.311,-3.311,-3.311,-3.311,-3.311,-3.311,-3.2607,-3.2678,-3.2685,-3.2769,-3.279,-3.2848,-3.2871,-3.2902,-3.2928,-3.2998,-3.304,-3.3054,-3.3082,-3.3134,-3.3179,-3.3184,-3.3202,-3.3223,-3.3225,-3.3129,-3.3116,-3.3103,-3.3087,-3.3227,-3.3227,-3.3323,-3.3324,-3.3325]},{"header":{"parameterUnit":"m.s-1","parameterCategory":1,"la1":30.2991,"la2":30.254,"lo1":-89.0895,"lo2":-89.0444,"dy":0.0017,"dx":0.0017,"nx":28,"ny":28,"refTime":"2025-09-14T09:00:00:Z","depth":0,"parameterNumber":3,"parameterNumberName":"V-component_of_WINDS"},"data":[0,0,0,0,0,0,0,0,0,0,0,0,0,0,0,0,0,0,0,0,0,0,0,0,0,0,0,0,0,0,0,0,0,0,0,0,0,0,0,0,0,0,0,0,0,0,0,0,0,0,0,0,0,0,0,0,0,0,3.4108,3.4108,0,3.4142,3.4143,3.4143,3.412,3.4119,3.4118,3.4117,3.4149,3.415,3.4152,0,0,0,0,0,0,0,0,0,0,0,0,0,3.4019,3.4021,3.4108,3.4108,3.4109,3.4142,3.4143,3.4143,3.412,3.4119,3.4118,3.4117,3.4148,3.415,3.4152,0,0,0,0,0,0,0,0,0,0,0,0,0,3.4056,3.4022,3.4108,3.4102,3.4101,3.4142,3.4143,3.4143,3.4121,3.4119,3.4118,3.4116,3.4147,3.415,3.4153,3.42,0,0,3.4161,3.4162,0,0,0,0,0,0,0,0,3.4054,3.4059,3.4102,3.4102,3.4102,3.4126,3.4123,3.4162,3.4121,3.4113,3.4117,3.4115,3.4142,3.4145,3.4155,3.4202,3.4203,3.4161,3.4163,3.4164,3.4165,0,0,0,0,0,0,0,3.4052,3.4058,3.4121,3.4103,3.4103,3.4096,3.41,3.413,3.4136,3.4114,3.4112,3.4117,3.4142,3.4152,3.4155,3.4204,3.4161,3.4163,3.4165,3.4166,3.4291,3.4293,0,0,0,0,0,0,3.405,3.4056,3.412,3.4122,3.4074,3.4099,3.4103,3.4119,3.4135,3.4136,3.4118,3.4116,3.4148,3.4152,3.4156,3.4212,3.4164,3.4166,3.4168,3.429,3.4292,3.4294,0,0,0,0,0,0,3.4048,3.4056,3.4119,3.4089,3.4096,3.4102,3.4121,3.4121,3.4132,3.4139,3.4139,3.4128,3.4147,3.4153,3.419,3.4213,3.4168,3.417,3.4288,3.429,3.4293,3.4326,0,0,0,0,0,0,3.4046,3.4056,3.4074,3.4089,3.4098,3.4153,3.4122,3.4123,3.4137,3.4134,3.4148,3.4149,3.4146,3.4186,3.4192,3.4216,3.4172,3.4285,3.4289,3.4292,3.4322,3.4329,3.4335,0,0,0,0,0,3.4043,3.4082,3.4075,3.4083,3.4122,3.4154,3.4159,3.4156,3.4139,3.4157,3.4162,3.4149,3.421,3.419,3.4197,3.4222,3.4284,3.4288,3.4292,3.432,3.4328,3.4335,0,0,0,0,0,0,3.4067,3.4083,3.4077,3.4122,3.4137,3.415,3.4173,3.4165,3.4184,3.418,3.4175,3.4179,3.4218,3.4224,3.4201,3.4269,3.4244,3.425,3.4263,3.4271,3.4277,3.4273,3.4175,0,0,0,0,0,3.4078,3.4105,3.4117,3.4155,3.4163,3.4167,3.4181,3.4178,3.4193,3.4199,3.4206,3.422,3.4243,3.4257,3.4279,3.4324,3.4326,3.4345,3.4351,3.4356,3.436,3.4384,3.4392,3.4306,3.4306,3.4306,0,0,3.41,3.4113,3.4129,3.4161,3.4172,3.4198,3.4173,3.4201,3.422,3.4203,3.4238,3.4245,3.426,3.4301,3.432,3.4308,3.4385,3.4361,3.4365,3.4366,3.4388,3.4397,3.4404,3.4309,3.4308,3.4308,0,0,3.4154,3.4167,3.42,3.4212,3.423,3.4233,3.4241,3.4256,3.426,3.4296,3.4284,3.4306,3.4345,3.4356,3.4367,3.4427,3.4414,3.4434,3.4464,3.4488,3.4494,3.45,3.452,3.4527,3.4438,3.4438,3.4438,0,3.4179,3.4218,3.4217,3.4247,3.4261,3.4249,3.4282,3.4293,3.4317,3.4326,3.4313,3.4362,3.4371,3.4415,3.443,3.4439,3.4447,3.4431,3.4494,3.45,3.4505,3.4524,3.4532,3.444,3.444,3.444,3.444,0,3.4247,3.4275,3.43,3.4325,3.4341,3.4372,3.4375,3.4392,3.4388,3.4392,3.4429,3.444,3.4463,3.4474,3.4469,3.4517,3.4508,3.4495,3.4469,3.4515,3.4533,3.454,3.4443,3.4442,3.4442,3.4441,0,0,3.4315,3.434,3.4349,3.436,3.438,3.4401,3.4432,3.4455,3.4469,3.4487,3.4511,3.4545,3.4533,3.4545,3.4543,3.4563,3.4608,3.4547,3.4547,3.4556,3.466,3.4668,3.4677,3.4602,3.4603,3.4604,3.4658,0,3.4368,3.4423,3.4423,3.4473,3.4498,3.4488,3.4514,3.4529,3.4533,3.4555,3.4559,3.4583,3.4566,3.4573,3.4594,3.4599,3.4629,3.4595,3.4622,3.4624,3.4617,3.4686,3.4695,3.4745,3.4665,3.4666,3.4667,0,3.4437,3.4458,3.4511,3.4527,3.4538,3.4562,3.4584,3.4605,3.4621,3.4623,3.4638,3.4632,3.4662,3.4638,3.4679,3.4656,3.4667,3.4672,3.4674,3.4674,3.4646,3.4687,3.4761,3.4768,3.4678,3.4677,3.4676,0,3.4479,3.4521,3.4557,3.4567,3.4588,3.4605,3.4614,3.4629,3.4644,3.4663,3.4672,3.4694,3.4706,3.4723,3.4723,3.4705,3.4763,3.4739,3.4764,3.4764,3.4775,3.4774,3.485,3.4786,3.4786,3.4786,3.4786,0,3.4538,3.457,3.4577,3.4599,3.4634,3.4635,3.467,3.4677,3.4691,3.4713,3.4706,3.4727,3.4727,3.4749,3.4749,3.4782,3.4788,3.4789,3.4788,3.4788,3.4788,3.4794,3.479,3.4788,3.4787,3.4787,3.4787,0,3.4589,3.4596,3.4635,3.4652,3.4657,3.4682,3.4696,3.4717,3.4722,3.4751,3.4758,3.4765,3.479,3.4792,3.4821,3.4821,3.4861,3.4857,3.4855,3.4854,3.4878,3.4875,3.496,3.497,3.4901,3.4902,3.4902,0,3.4625,3.465,3.467,3.4686,3.4696,3.4721,3.4736,3.4738,3.4754,3.4775,3.4793,3.4818,3.4837,3.4877,3.4884,3.4906,3.4902,3.493,3.4905,3.4904,3.49,3.4898,3.49,3.4934,3.4935,3.4935,3.4936,0,3.4688,3.469,3.4713,3.4737,3.4756,3.4775,3.4792,3.4805,3.4809,3.4827,3.4853,3.4868,3.4898,3.4922,3.4944,3.4952,3.4944,3.4944,3.4951,3.495,3.4948,3.4948,3.4866,3.4942,3.4941,3.4941,3.494,3.494,3.4731,3.4753,3.4771,3.4796,3.481,3.4827,3.4847,3.4856,3.4878,3.4903,3.4903,3.4931,3.4947,3.4976,3.4986,3.5007,3.4998,3.5008,3.501,3.5012,3.5013,3.4946,3.5011,3.5011,3.5011,3.5011,3.5011,0,3.4792,3.4803,3.4827,3.4853,3.4873,3.4866,3.4886,3.4902,3.4928,3.4944,3.4964,3.4994,3.5017,3.5027,3.505,3.5065,3.5062,3.5071,3.5069,3.507,3.5022,3.5013,3.5073,3.5073,3.5073,3.5073,3.5073,3.5073,3.4825,3.4861,3.4865,3.4908,3.4919,3.4947,3.4959,3.4974,3.4987,3.5021,3.5041,3.5048,3.5061,3.5085,3.5106,3.5108,3.5116,3.5126,3.5127,3.508,3.5074,3.5068,3.5059,3.5128,3.5129,3.5173,3.5174,3.5174]}]]